Temp
15 12 11 12 12 14 13 14 13 15 16 16 15 15 17 17 19 18 19 20 21 21 23 25 25 25 26 26 25 24 25 26 26 26 26 25 24 24 23 24 24 24 23 23
11 11 14 15 15 14 14 13 13 14 16 16 15 16 17 16 17 18 19 20 21 21 22 23 24 25 26 26 25 25 25 26 26 26 26 26 26 25 25 25 23 23 22 22
12 13 15 15 14 14 13 13 12 13 14 14 14 14 15 17 17 18 19 19 20 21 21 22 23 24 25 26 25 26 26 25 25 25 25 25 24 24 24 24 24 24 24 22
12 14 15 14 14 13 12 13 13 13 12 10 14 11 14 15 16 16 18 18 19 20 21 22 22 23 24 25 26 25 25 25 24 25 25 25 25 24 25 25 24 24 24 22
12 13 13 13 13 14 12 12 12 12 11 10 12 10 13 14 14 15 16 18 19 20 20 21 22 22 24 25 25 25 26 25 24 25 25 24 25 24 24 24 23 23 22 22
13 16 14 13 14 14 13 12 10 9 9 8 12 11 13 14 14 16 15 13 14 14 16 18 20 22 23 24 24 25 25 25 24 24 25 25 24 24 23 23 22 22 21 22
13 13 14 13 12 12 11 9 6 7 7 8 12 10 12 14 12 9 10 11 14 14 16 16 18 20 21 22 24 25 25 25 24 24 24 24 24 24 24 23 22 21 20 20
8 9 13 12 12 11 10 8 5 6 8 9 10 9 11 10 11 11 11 11 13 14 15 16 17 19 21 22 23 23 25 24 24 24 25 25 24 24 23 22 22 21 20 20
9 9 13 13 13 12 11 8 9 5 7 8 8 10 12 11 11 11 11 12 12 13 14 15 16 18 20 22 23 24 24 24 25 24 24 24 24 23 23 21 21 21 20 19
9 8 12 13 12 12 11 11 7 5 7 8 9 10 10 10 10 10 10 10 12 11 13 16 15 16 18 20 23 23 25 25 25 24 24 24 23 23 21 21 22 20 19 18
8 8 9 10 10 10 9 8 7 6 7 8 7 8 9 9 9 8 8 10 11 11 12 14 15 16 17 18 19 23 24 25 25 25 25 24 23 21 21 21 20 19 18 18
7 6 5 9 10 11 10 8 7 6 7 7 7 7 11 9 8 8 9 10 11 11 12 14 16 16 17 17 18 21 24 25 25 25 24 23 21 21 20 20 19 18 18 18
7 5 6 7 9 9 9 9 8 7 6 6 7 8 10 8 8 9 9 11 11 12 12 16 16 16 17 18 18 19 22 24 24 23 22 20 20 19 18 18 17 17 17 16
7 6 6 6 8 9 7 8 8 7 5 7 8 9 10 11 10 9 11 14 13 13 13 16 17 16 17 17 18 18 20 23 22 21 20 19 18 18 17 17 17 17 17 16
6 6 6 7 8 8 7 8 8 9 9 7 9 10 10 9 10 10 11 14 13 13 14 16 15 16 18 17 17 17 19 21 21 19 19 18 17 17 17 17 17 17 16 16
5 6 6 7 8 9 8 9 9 10 10 10 9 9 12 11 11 11 11 13 13 13 13 15 15 15 16 16 16 17 18 19 19 19 19 18 17 17 17 17 16 16 15 15
4 5 5 6 8 8 8 10 10 9 10 9 7 9 9 9 9 9 8 9 11 10 12 13 14 15 14 16 16 16 15 19 19 19 18 17 17 17 16 15 15 15 15 15
5 4 6 6 5 7 8 8 8 7 9 8 8 7 6 6 6 7 9 10 8 9 11 12 13 13 13 13 15 14 13 17 18 18 17 17 16 16 15 15 15 15 15 15
5 5 5 6 4 7 9 7 6 6 6 8 6 6 6 5 5 8 11 8 6 9 9 11 12 12 12 12 11 15 14 17 17 17 16 16 15 15 16 15 15 15 15 15
6 6 5 5 5 4 7 7 7 6 6 6 5 6 6 6 4 6 6 5 8 10 10 11 13 12 13 11 12 12 14 17 18 16 16 16 16 16 15 15 15 14 14 14
6 6 6 6 5 6 6 7 6 5 6 5 5 5 5 5 5 5 5 6 8 10 10 11 13 12 10 12 12 12 16 17 16 16 16 16 15 15 15 15 15 14 14 14
4 5 5 6 6 5 6 5 5 6 6 5 5 5 5 4 4 5 6 8 9 10 11 12 12 12 11 12 13 15 17 16 16 16 16 16 15 15 15 15 14 14 14 14
4 4 5 5 5 6 6 6 7 7 5 5 4 4 4 4 5 6 7 8 9 10 11 11 12 11 11 13 13 17 17 17 16 16 16 15 15 15 15 15 14 14 14 13
5 5 4 5 6 5 6 6 6 6 4 5 4 3 4 4 5 6 6 8 9 11 11 11 12 12 12 14 14 17 17 17 16 16 16 16 15 15 14 14 14 14 14 13
5 6 4 4 6 6 6 6 5 5 5 4 4 4 4 5 6 6 6 7 8 11 11 11 12 12 12 14 16 17 16 17 16 16 16 15 15 15 14 14 14 14 14 14
6 7 6 6 6 6 6 6 5 5 4 4 3 4 4 4 5 7 7 8 9 11 11 11 11 12 13 14 17 17 17 16 16 16 16 15 15 15 15 14 14 13 13 13
Height
1471 1478 1484 1479 1477 1473 1473 1472 1473 1464 1458 1456 1455 1445 1439 1439 1438 1438 1436 1434 1432 1429 1426 1426 1429 1431 1436 1439 1439 1441 1443 1443 1445 1447 1452 1454 1454 1457 1458 1460 1461 1463 1465 1466
1478 1480 1471 1470 1468 1468 1468 1470 1470 1460 1455 1455 1454 1441 1431 1434 1434 1433 1432 1430 1429 1426 1422 1420 1422 1425 1426 1428 1432 1435 1437 1438 1438 1440 1443 1444 1446 1447 1451 1455 1455 1456 1458 1459
1478 1473 1466 1466 1467 1467 1469 1471 1472 1472 1460 1456 1455 1441 1433 1428 1430 1430 1430 1429 1426 1424 1420 1417 1417 1417 1419 1420 1423 1424 1428 1431 1434 1433 1435 1436 1440 1443 1446 1448 1448 1450 1451 1452
1472 1464 1465 1466 1467 1467 1473 1466 1465 1464 1469 1475 1460 1459 1439 1432 1427 1427 1425 1423 1421 1418 1416 1414 1411 1410 1411 1413 1417 1417 1419 1419 1424 1427 1427 1428 1431 1435 1439 1441 1443 1445 1445 1446
1470 1466 1466 1467 1468 1464 1468 1464 1464 1462 1463 1466 1459 1468 1429 1429 1428 1423 1420 1417 1415 1413 1411 1408 1405 1403 1401 1404 1407 1410 1411 1411 1414 1419 1422 1424 1424 1429 1433 1435 1436 1437 1438 1439
1462 1460 1460 1463 1462 1461 1462 1463 1463 1463 1463 1471 1452 1459 1415 1429 1424 1418 1417 1415 1412 1408 1405 1401 1399 1398 1395 1394 1397 1400 1402 1405 1408 1412 1416 1416 1418 1423 1426 1428 1429 1430 1432 1432
1462 1460 1458 1459 1463 1462 1464 1472 1485 1481 1474 1466 1446 1451 1430 1418 1420 1424 1421 1413 1407 1402 1398 1395 1392 1391 1389 1388 1391 1393 1395 1397 1402 1406 1410 1410 1413 1416 1419 1422 1423 1424 1425 1428
1478 1477 1459 1461 1463 1465 1466 1471 1493 1485 1473 1462 1454 1448 1430 1418 1417 1417 1416 1412 1404 1397 1393 1389 1386 1383 1382 1383 1384 1385 1387 1390 1394 1396 1399 1402 1405 1408 1412 1416 1417 1418 1421 1424
1477 1469 1456 1457 1457 1461 1462 1468 1459 1475 1465 1466 1452 1431 1417 1414 1413 1408 1406 1401 1397 1392 1387 1383 1379 1376 1374 1372 1372 1373 1375 1379 1385 1388 1392 1394 1398 1400 1404 1409 1411 1413 1418 1422
1472 1472 1455 1455 1455 1451 1456 1455 1469 1475 1468 1457 1438 1432 1428 1417 1412 1407 1401 1397 1390 1386 1381 1378 1375 1368 1365 1364 1363 1364 1365 1368 1373 1378 1383 1388 1390 1393 1399 1404 1405 1409 1414 1418
1469 1471 1463 1460 1456 1451 1456 1458 1461 1465 1464 1453 1450 1438 1419 1415 1408 1406 1399 1393 1386 1380 1376 1371 1368 1363 1360 1358 1356 1354 1355 1358 1364 1370 1374 1378 1383 1387 1394 1397 1400 1406 1410 1414
1471 1474 1476 1461 1445 1446 1448 1451 1455 1464 1457 1453 1449 1434 1407 1407 1400 1399 1391 1384 1380 1373 1367 1363 1361 1356 1353 1352 1349 1346 1349 1352 1358 1364 1368 1373 1378 1384 1388 1392 1396 1402 1406 1410
1471 1477 1472 1459 1450 1448 1446 1448 1448 1449 1450 1448 1447 1424 1400 1400 1398 1394 1389 1381 1374 1367 1357 1355 1354 1350 1348 1345 1344 1342 1344 1346 1352 1357 1363 1370 1375 1380 1383 1388 1393 1399 1404 1409
1468 1472 1473 1465 1451 1446 1448 1444 1442 1445 1450 1436 1426 1416 1403 1393 1391 1385 1381 1370 1367 1361 1352 1348 1347 1345 1342 1340 1340 1340 1342 1341 1347 1354 1360 1366 1370 1376 1380 1386 1391 1397 1403 1408
1467 1467 1465 1452 1446 1441 1438 1437 1431 1428 1425 1429 1410 1409 1397 1390 1381 1375 1374 1369 1363 1355 1347 1342 1339 1334 1331 1333 1335 1340 1346 1339 1344 1350 1358 1364 1369 1374 1380 1386 1392 1397 1403 1408
1466 1460 1456 1445 1435 1430 1429 1424 1419 1412 1410 1407 1405 1401 1387 1384 1377 1375 1375 1369 1364 1357 1344 1343 1336 1333 1328 1326 1328 1333 1343 1344 1344 1348 1354 1363 1370 1372 1380 1386 1391 1397 1403 1409
1465 1462 1457 1442 1430 1427 1423 1413 1411 1411 1407 1408 1408 1396 1392 1385 1381 1382 1373 1370 1364 1359 1359 1348 1343 1334 1329 1320 1321 1331 1342 1343 1344 1347 1354 1363 1370 1374 1381 1387 1392 1398 1404 1410
1456 1460 1453 1445 1441 1431 1420 1418 1417 1416 1408 1404 1398 1397 1396 1388 1385 1378 1373 1370 1368 1358 1350 1339 1333 1330 1328 1327 1324 1327 1342 1343 1342 1346 1355 1364 1370 1377 1384 1389 1394 1399 1404 1410
1446 1452 1451 1447 1449 1428 1413 1418 1420 1420 1406 1401 1400 1398 1391 1392 1380 1356 1368 1366 1363 1355 1345 1334 1329 1327 1330 1329 1330 1335 1339 1340 1341 1348 1360 1368 1373 1379 1385 1390 1394 1400 1405 1410
1447 1447 1448 1443 1442 1446 1416 1417 1418 1417 1402 1397 1400 1397 1389 1393 1383 1361 1364 1360 1352 1345 1338 1332 1326 1319 1323 1325 1321 1330 1337 1338 1343 1354 1364 1370 1375 1381 1386 1391 1396 1401 1406 1410
1444 1441 1439 1436 1436 1423 1412 1414 1414 1419 1404 1393 1399 1396 1390 1387 1384 1374 1363 1351 1350 1340 1334 1331 1327 1321 1323 1327 1325 1336 1336 1342 1351 1360 1365 1371 1377 1382 1386 1391 1396 1401 1405 1409
1447 1444 1438 1432 1429 1429 1412 1414 1416 1407 1396 1391 1391 1389 1386 1379 1371 1370 1361 1352 1348 1341 1330 1331 1329 1317 1308 1309 1312 1334 1337 1345 1353 1361 1368 1373 1377 1382 1387 1392 1397 1401 1404 1408
1444 1439 1435 1434 1424 1410 1411 1407 1405 1404 1395 1389 1384 1378 1383 1372 1365 1359 1351 1346 1345 1341 1333 1324 1322 1328 1324 1324 1333 1336 1340 1347 1355 1363 1369 1373 1377 1383 1389 1393 1397 1400 1403 1406
1434 1432 1429 1427 1411 1406 1404 1404 1404 1399 1391 1387 1383 1373 1373 1364 1362 1355 1348 1341 1337 1335 1333 1329 1325 1323 1330 1332 1336 1340 1345 1354 1360 1365 1370 1374 1379 1385 1390 1394 1396 1398 1402 1406
1435 1430 1425 1420 1410 1405 1401 1401 1397 1394 1389 1384 1379 1372 1366 1361 1356 1352 1346 1340 1334 1332 1330 1328 1328 1328 1332 1336 1339 1344 1352 1357 1362 1367 1371 1376 1381 1386 1389 1392 1394 1397 1401 1406
1425 1422 1420 1410 1408 1405 1400 1395 1390 1388 1385 1380 1374 1368 1363 1359 1353 1349 1342 1336 1328 1325 1322 1320 1328 1314 1334 1338 1340 1347 1354 1360 1365 1369 1373 1378 1382 1386 1388 1390 1393 1397 1402 1406
Wind_Speed
7 3 4 11 9 12 7 10 7 5 8 6 8 15 14 9 12 14 24 28 33 31 39 45 43 36 36 37 25 42 42 38 39 48 43 40 38 38 37 35 32 29 30 32
6 3 3 5 7 6 8 5 7 6 7 11 12 21 18 8 7 16 23 28 30 35 34 38 45 44 40 38 33 35 40 45 45 49 44 41 40 41 36 34 30 28 28 32
3 7 8 8 6 7 5 5 8 8 12 8 6 17 16 15 8 13 19 26 29 30 32 34 32 38 39 37 37 36 33 41 50 50 45 46 41 39 34 33 32 31 33 32
6 7 5 7 3 3 3 7 10 12 9 4 3 13 16 12 14 7 18 21 30 31 32 35 33 32 28 38 39 28 29 30 49 51 45 45 44 37 32 31 28 29 33 30
10 5 11 3 1 2 6 6 6 9 10 4 9 6 14 5 13 15 13 27 31 34 36 35 34 33 31 30 42 39 32 25 40 48 43 37 35 32 28 27 30 29 31 33
8 5 4 5 2 1 3 4 6 4 3 6 9 8 26 12 9 14 12 21 22 24 25 28 30 34 30 30 31 34 28 28 32 41 38 37 34 30 30 31 30 27 26 28
3 3 3 3 1 3 1 4 4 5 3 5 2 5 19 9 3 2 9 19 27 27 28 30 28 31 31 29 33 35 32 32 33 36 36 36 34 34 33 31 26 25 23 27
3 6 2 2 4 5 5 6 4 4 6 10 13 7 5 7 4 6 11 16 26 29 31 32 30 29 31 32 33 39 45 43 43 44 44 43 41 37 35 32 26 24 25 29
3 5 8 6 3 2 2 4 7 3 3 5 5 7 6 5 6 10 15 18 27 35 36 36 31 30 31 34 34 37 42 47 46 48 44 43 38 37 37 32 25 23 24 28
3 7 4 2 6 9 6 2 2 2 3 5 5 5 6 8 8 10 13 16 29 33 38 35 33 29 24 27 30 33 37 46 42 43 38 35 35 34 34 30 24 25 23 27
1 2 5 4 5 13 3 2 2 2 3 4 5 5 6 8 10 8 12 21 27 37 39 31 33 31 30 28 25 35 37 40 41 37 34 36 32 30 31 27 24 23 24 23
1 1 4 10 20 9 4 4 5 3 3 3 3 8 10 11 12 7 14 27 32 32 29 26 29 33 30 33 25 25 37 34 34 36 35 28 29 29 28 25 23 23 22 20
1 1 5 7 3 3 2 4 4 4 2 6 4 8 5 11 10 13 14 26 31 32 22 15 28 35 32 34 25 20 29 31 29 27 28 27 26 26 25 23 24 22 22 22
6 2 6 7 15 10 13 15 15 9 4 6 14 19 17 20 15 10 15 15 26 29 24 18 30 33 36 30 24 15 29 27 29 29 27 24 25 26 27 27 26 26 24 22
6 5 10 19 21 20 19 19 21 16 15 12 18 16 17 9 17 12 24 25 26 30 29 26 40 42 39 35 24 17 32 36 34 29 22 25 28 26 29 27 27 26 26 24
3 5 6 15 18 16 17 18 20 19 14 9 5 11 11 15 19 14 20 23 24 25 39 43 51 33 38 35 25 26 30 30 31 26 27 28 29 29 31 32 30 27 24 23
5 3 3 5 8 13 6 4 4 3 2 3 6 10 9 16 17 19 29 31 21 27 26 26 24 17 28 20 26 33 26 32 31 30 30 32 33 30 29 29 28 28 26 22
6 4 3 5 6 3 2 6 5 8 11 12 12 8 11 17 30 30 27 10 23 36 34 34 33 17 18 9 14 42 33 33 32 34 36 30 32 33 32 29 26 22 24 23
5 3 3 2 2 7 2 4 3 3 17 12 6 12 18 27 30 30 6 27 37 38 33 36 31 25 15 11 13 35 24 37 39 36 35 36 35 35 29 26 24 23 27 24
3 4 4 1 3 4 3 4 5 7 9 2 13 16 20 24 13 17 35 47 42 34 34 39 33 26 23 3 23 16 30 38 36 37 35 32 29 29 27 27 27 26 21 21
3 4 9 5 5 6 4 4 5 0 6 20 21 24 21 14 14 33 42 43 27 28 33 35 30 24 10 18 31 31 41 38 36 34 32 29 27 27 27 28 26 24 22 20
3 2 3 3 4 5 1 1 1 6 30 27 25 21 23 29 32 30 30 28 25 28 33 32 24 20 22 9 9 37 39 37 35 32 31 28 29 27 28 26 27 21 20 19
2 5 3 5 5 5 14 13 16 21 26 29 25 25 27 29 30 28 29 28 28 28 28 29 24 11 15 9 6 35 37 35 36 36 32 30 28 29 27 25 22 21 19 20
5 2 3 1 6 14 15 17 19 23 26 21 22 31 27 29 25 28 31 31 30 24 25 19 12 14 25 14 22 32 32 37 35 35 29 25 29 29 26 23 21 19 18 18
11 5 4 7 13 14 10 15 25 22 23 18 30 23 23 22 23 25 28 29 26 22 18 11 10 12 14 25 34 37 38 35 33 31 29 30 30 28 27 24 22 16 15 13
4 3 3 3 8 8 10 19 23 22 16 24 22 22 22 20 22 23 26 23 22 18 7 8 11 8 11 26 41 38 33 33 32 30 28 28 26 26 25 22 21 17 14 13
Wind_Direction
315 76 211 247 227 244 263 271 270 284 297 281 275 276 286 285 299 304 305 304 304 304 285 271 269 267 263 263 266 229 216 224 217 210 218 225 226 227 232 242 248 251 252 256
8 287 242 282 311 314 312 311 309 275 304 305 302 288 284 270 256 286 287 290 294 297 300 284 267 258 259 261 255 251 242 226 222 213 218 226 234 231 238 248 245 250 252 259
198 252 295 316 317 330 337 353 348 335 324 333 329 288 292 293 259 281 296 299 295 296 298 299 286 268 257 252 259 259 257 242 225 215 219 225 224 230 237 244 249 255 263 265
253 251 269 288 299 42 335 348 331 321 329 279 6 285 286 289 289 267 284 297 301 300 301 294 297 298 270 254 252 250 257 252 226 225 224 222 228 233 241 255 265 269 269 265
250 279 278 295 5 327 268 333 306 306 286 297 262 263 286 327 295 298 289 282 283 288 294 297 298 299 278 259 251 251 252 267 237 227 228 230 239 246 252 253 257 265 260 255
238 260 133 168 225 286 311 318 318 326 222 247 275 220 277 256 272 276 328 350 333 327 319 308 303 293 293 274 249 244 246 244 230 230 231 239 245 249 252 255 255 265 255 245
325 325 96 121 329 331 157 14 327 331 346 241 8 296 260 270 64 107 318 319 332 328 330 313 300 290 287 289 262 248 240 231 223 226 232 239 249 255 255 252 254 258 248 240
176 321 313 81 212 257 241 181 165 258 280 289 290 249 266 80 41 318 300 308 322 324 328 319 310 302 294 282 278 261 246 238 230 232 235 246 255 251 247 245 251 250 244 241
315 260 325 285 15 73 254 193 206 188 231 262 236 278 279 45 341 333 324 322 319 322 319 318 312 306 294 278 276 275 255 242 239 239 242 245 243 243 240 236 247 246 238 234
327 301 186 283 332 268 181 211 272 10 286 251 260 270 257 313 302 310 315 314 311 313 312 308 309 318 306 293 274 271 251 244 242 238 242 242 242 242 231 231 242 231 229 224
91 194 276 3 237 281 312 222 59 125 201 267 295 260 230 247 260 266 282 296 310 309 303 301 299 315 309 297 281 259 248 241 244 240 241 242 241 226 220 229 228 223 226 224
51 248 282 278 278 280 239 213 159 194 210 230 257 259 258 224 244 248 286 309 309 301 292 292 297 318 303 301 299 256 235 223 224 230 241 229 218 213 220 224 223 216 213 213
241 287 301 315 27 322 121 225 225 231 209 223 254 264 233 250 253 256 283 312 300 305 303 288 307 319 310 307 294 280 234 219 220 212 203 200 208 215 212 200 193 193 182 174
141 221 229 255 277 284 282 282 277 231 207 248 249 277 295 289 280 243 258 315 301 303 304 309 312 322 315 306 281 276 221 197 189 187 192 201 202 201 192 185 179 171 169 166
132 258 253 258 265 271 269 269 273 266 242 239 271 271 286 287 306 242 237 297 308 307 313 325 313 315 315 298 264 228 208 184 182 178 188 192 190 187 183 174 174 168 159 154
148 271 279 284 268 263 267 267 261 254 264 265 289 280 248 313 308 289 260 293 306 317 318 310 304 313 309 281 235 221 206 188 174 183 184 185 183 177 172 165 157 154 152 160
162 241 259 263 302 302 282 308 319 312 307 303 277 274 344 327 323 334 319 312 348 353 339 342 340 340 313 236 211 219 223 192 185 179 173 170 164 159 160 156 155 159 162 170
178 200 234 281 337 287 106 34 32 348 275 311 287 326 329 316 320 307 303 313 347 351 336 340 345 337 333 172 181 201 230 187 175 167 162 161 160 156 154 156 159 160 167 174
148 149 254 271 245 278 327 16 15 354 290 273 332 333 320 330 322 303 348 340 335 329 327 328 336 337 338 285 217 202 180 176 164 157 157 156 154 153 159 162 161 167 165 167
222 243 206 200 263 251 217 163 293 297 273 30 346 323 316 339 312 299 324 321 323 326 330 330 338 334 349 296 188 210 190 165 157 155 155 156 161 164 162 165 166 164 169 170
238 231 240 252 255 273 163 225 297 354 299 312 323 306 309 302 285 297 307 311 319 320 326 331 337 347 344 199 229 197 158 150 154 156 156 162 170 166 169 167 168 168 174 179
214 228 242 242 247 281 125 349 132 247 287 296 301 295 305 297 296 300 306 315 322 324 320 332 341 343 289 258 88 153 149 154 155 156 163 163 159 166 169 168 166 170 174 178
296 209 226 211 236 239 260 269 279 315 294 298 298 302 307 294 299 305 308 312 312 311 321 332 339 335 224 249 181 156 157 158 164 166 159 161 165 166 167 166 167 170 173 175
311 235 239 190 254 255 283 320 315 308 303 307 308 308 305 298 301 304 307 303 308 314 321 335 327 240 221 234 179 163 169 166 162 158 158 158 159 161 165 173 175 177 178 179
274 272 304 254 270 291 301 314 316 312 314 307 320 312 308 306 301 304 303 304 310 305 307 302 194 216 184 159 162 156 156 158 156 152 152 155 162 167 168 173 175 184 188 193
233 227 266 285 281 266 291 317 330 320 317 326 316 314 311 301 300 304 301 307 303 290 275 241 190 244 164 152 153 154 159 159 154 160 153 159 160 168 170 174 174 177 184 193